Belmar-Farmingdale, NJ

3:19 PM EDT on May 24, 2017 (GMT -0400)
Allaire

Weather History for KBLM - December, 2013

Change the Weather History Date:

Thursday, December 12, 2013

  Actual Average Record
Temperature  
Mean Temperature 22 °F -  
Max Temperature 26 °F 44 °F 69 °F (2015)
Min Temperature 19 °F 31 °F 19 °F (2013)
Degree Days  
Heating Degree Days 42    
Moisture  
Dew Point 6 °F    
Average Humidity 49    
Maximum Humidity 63    
Minimum Humidity 37    
Precipitation  
Precipitation 0.00 in - - ()
Sea Level Pressure  
Sea Level Pressure 30.28 in    
Wind  
Wind Speed 8 mph (WNW)    
Max Wind Speed 20 mph    
Max Gust Speed 24 mph    
Visibility 10 miles    
Events      
Averages and records for this station are not official NWS values.
T = Trace of Precipitation, MM = Missing Value Source: NWS Daily Summary

Daily Weather History Graph

Daily Weather History Graph

Search for Another Location

Airport or City:

Trip Planner

Search our weather history database for the weather conditions in past years. The results will help you decide how hot, cold, wet, or windy it might be!

Date:

Astronomy

Dec. 12, 2013 Rise Set
Actual Time 7:09 AM EST 4:30 PM EST
Civil Twilight 6:39 AM EST 5:01 PM EST
Nautical Twilight 6:05 AM EST 5:35 PM EST
Astronomical Twilight 5:32 AM EST 6:08 PM EST
Moon 1:36 PM EST (12/12) 2:29 AM EST (12/12)
Length of Visible Light 10h 22m
Length of Day
9h 21m
Waxing Gibbous, 80% of the Moon is Illuminated
Dec 12
Waxing Gibbous
Dec 17
Full
Dec 25
Last Quarter
Jan 1
New
Jan 7
First Quarter

Hourly Weather History & Observations

Time (EST) Temp. Windchill Dew Point Humidity Pressure Visibility Wind Dir Wind Speed Gust Speed Precip Events Conditions
12:15 AM 26.6 °F 20.0 °F 12.2 °F 55% 30.24 in 10.0 mi West 5.8 mph - N/A   Clear
12:35 AM 26.6 °F 20.0 °F 12.2 °F 55% 30.23 in 10.0 mi WNW 5.8 mph - N/A   Clear
12:55 AM 26.6 °F 21.2 °F 12.2 °F 55% 30.22 in 10.0 mi West 4.6 mph - N/A   Clear
1:15 AM 24.8 °F 16.9 °F 12.2 °F 59% 30.23 in 10.0 mi WSW 6.9 mph - N/A   Clear
1:35 AM 24.8 °F 16.9 °F 12.2 °F 59% 30.24 in 10.0 mi West 6.9 mph - N/A   Clear
1:55 AM 24.8 °F 17.9 °F 12.2 °F 59% 30.24 in 10.0 mi WNW 5.8 mph - N/A   Clear
2:15 AM 24.8 °F 19.1 °F 12.2 °F 59% 30.25 in 10.0 mi WNW 4.6 mph - N/A   Clear
2:35 AM 24.8 °F 19.1 °F 12.2 °F 59% 30.26 in 10.0 mi WNW 4.6 mph - N/A   Clear
2:55 AM 23.0 °F 14.7 °F 10.4 °F 59% 30.26 in 10.0 mi NW 6.9 mph - N/A   Scattered Clouds
3:15 AM 24.8 °F 17.9 °F 12.2 °F 59% 30.26 in 10.0 mi WNW 5.8 mph - N/A   Mostly Cloudy
3:35 AM 24.8 °F 20.5 °F 12.2 °F 59% 30.26 in 10.0 mi WNW 3.5 mph - N/A   Scattered Clouds
3:55 AM 23.0 °F 14.7 °F 10.4 °F 59% 30.25 in 10.0 mi WNW 6.9 mph - N/A   Clear
4:15 AM 23.0 °F 14.7 °F 12.2 °F 63% 30.26 in 10.0 mi NW 6.9 mph - N/A   Clear
4:35 AM 23.0 °F 13.1 °F 12.2 °F 63% 30.26 in 10.0 mi NW 9.2 mph - N/A   Clear
4:55 AM 23.0 °F 12.4 °F 12.2 °F 63% 30.27 in 10.0 mi NW 10.4 mph - N/A   Clear
5:15 AM 24.8 °F 14.0 °F 12.2 °F 59% 30.27 in 10.0 mi NNW 11.5 mph - N/A   Clear
5:35 AM 24.8 °F 14.0 °F 12.2 °F 59% 30.28 in 10.0 mi NW 11.5 mph - N/A   Clear
5:55 AM 23.0 °F 13.9 °F 10.4 °F 59% 30.29 in 10.0 mi NNW 8.1 mph - N/A   Clear
6:15 AM 23.0 °F 13.1 °F 10.4 °F 59% 30.30 in 10.0 mi NNW 9.2 mph - N/A   Clear
6:35 AM 23.0 °F 14.7 °F 8.6 °F 54% 30.30 in 10.0 mi NNW 6.9 mph - N/A   Clear
6:55 AM 21.2 °F 12.6 °F 8.6 °F 58% 30.31 in 10.0 mi NNW 6.9 mph - N/A   Clear
7:15 AM 21.2 °F 12.6 °F 8.6 °F 58% 30.32 in 10.0 mi NNW 6.9 mph - N/A   Clear
7:35 AM 21.2 °F 12.6 °F 8.6 °F 58% 30.32 in 10.0 mi NW 6.9 mph - N/A   Clear
7:55 AM 21.2 °F 12.6 °F 8.6 °F 58% 30.33 in 10.0 mi NW 6.9 mph - N/A   Clear
8:15 AM 23.0 °F 11.7 °F 8.6 °F 54% 30.34 in 10.0 mi NNW 11.5 mph - N/A   Clear
8:35 AM 24.8 °F 12.4 °F 8.6 °F 50% 30.34 in 10.0 mi NW 15.0 mph 20.7 mph N/A   Clear
8:55 AM 23.0 °F 11.1 °F 6.8 °F 50% 30.35 in 10.0 mi NW 12.7 mph - N/A   Clear
9:15 AM 24.8 °F 11.5 °F 6.8 °F 46% 30.35 in 10.0 mi NW 17.3 mph 23.0 mph N/A   Clear
9:35 AM 24.8 °F 10.7 °F 5.0 °F 43% 30.36 in 10.0 mi NW 19.6 mph 24.2 mph N/A   Clear
9:55 AM 24.8 °F 13.4 °F 3.2 °F 40% 30.36 in 10.0 mi NW 12.7 mph - N/A   Clear
10:15 AM 24.8 °F 14.0 °F 3.2 °F 40% 30.36 in 10.0 mi NW 11.5 mph 19.6 mph N/A   Clear
10:35 AM 24.8 °F 13.4 °F 3.2 °F 40% 30.35 in 10.0 mi NW 12.7 mph - N/A   Clear
10:55 AM 24.8 °F 11.5 °F 3.2 °F 40% 30.34 in 10.0 mi NNW 17.3 mph 21.9 mph N/A   Clear
11:15 AM 24.8 °F 12.9 °F 3.2 °F 40% 30.32 in 10.0 mi NNW 13.8 mph 19.6 mph N/A   Clear
11:35 AM 26.6 °F 13.4 °F 3.2 °F 37% 30.31 in 10.0 mi North 18.4 mph 24.2 mph N/A   Clear
11:55 AM 26.6 °F 13.4 °F 3.2 °F 37% 30.30 in 10.0 mi NW 18.4 mph 21.9 mph N/A   Clear
12:15 PM 26.6 °F 14.3 °F 3.2 °F 37% 30.30 in 10.0 mi WNW 16.1 mph - N/A   Clear
12:35 PM 26.6 °F 15.7 °F 3.2 °F 37% 30.29 in 10.0 mi NW 12.7 mph - N/A   Clear
12:55 PM 26.6 °F 15.7 °F 3.2 °F 37% 30.28 in 10.0 mi NW 12.7 mph 18.4 mph N/A   Clear
1:15 PM 26.6 °F 16.2 °F 3.2 °F 37% 30.28 in 10.0 mi NW 11.5 mph 16.1 mph N/A   Clear
1:35 PM 26.6 °F 16.8 °F 3.2 °F 37% 30.28 in 10.0 mi West 10.4 mph 18.4 mph N/A   Clear
1:55 PM 26.6 °F 18.2 °F 3.2 °F 37% 30.27 in 10.0 mi West 8.1 mph - N/A   Clear
2:15 PM 26.6 °F 17.5 °F 3.2 °F 37% 30.27 in 10.0 mi West 9.2 mph - N/A   Clear
2:35 PM 26.6 °F 16.8 °F 3.2 °F 37% 30.26 in 10.0 mi WNW 10.4 mph 16.1 mph N/A   Clear
2:55 PM 26.6 °F 15.7 °F 3.2 °F 37% 30.27 in 10.0 mi West 12.7 mph - N/A   Clear
3:15 PM 26.6 °F 16.8 °F 3.2 °F 37% 30.27 in 10.0 mi WNW 10.4 mph - N/A   Clear
3:35 PM 26.6 °F 18.2 °F 5.0 °F 40% 30.27 in 10.0 mi West 8.1 mph - N/A   Clear
3:55 PM 26.6 °F 19.1 °F 5.0 °F 40% 30.26 in 10.0 mi West 6.9 mph - N/A   Clear
4:15 PM 26.6 °F 18.2 °F 5.0 °F 40% 30.27 in 10.0 mi West 8.1 mph - N/A   Clear
4:35 PM 24.8 °F 16.1 °F 3.2 °F 40% 30.27 in 10.0 mi West 8.1 mph - N/A   Clear
4:55 PM 24.8 °F 17.9 °F 3.2 °F 40% 30.27 in 10.0 mi West 5.8 mph - N/A   Clear
5:15 PM 24.8 °F 17.9 °F 3.2 °F 40% 30.27 in 10.0 mi WSW 5.8 mph - N/A   Clear
5:35 PM 23.0 °F 15.8 °F 3.2 °F 43% 30.27 in 10.0 mi West 5.8 mph - N/A   Clear
5:55 PM 23.0 °F 15.8 °F 3.2 °F 43% 30.27 in 10.0 mi WSW 5.8 mph - N/A   Clear
6:15 PM 23.0 °F 14.7 °F 3.2 °F 43% 30.27 in 10.0 mi West 6.9 mph - N/A   Clear
6:35 PM 23.0 °F 14.7 °F 3.2 °F 43% 30.28 in 10.0 mi WSW 6.9 mph - N/A   Clear
6:55 PM 21.2 °F 12.6 °F 3.2 °F 46% 30.28 in 10.0 mi West 6.9 mph - N/A   Clear
7:15 PM 21.2 °F 12.6 °F 3.2 °F 46% 30.28 in 10.0 mi West 6.9 mph - N/A   Clear
7:35 PM 21.2 °F 12.6 °F 5.0 °F 50% 30.28 in 10.0 mi WSW 6.9 mph - N/A   Clear
7:55 PM 21.2 °F 11.7 °F 3.2 °F 46% 30.27 in 10.0 mi WSW 8.1 mph - N/A   Clear
8:15 PM 21.2 °F 12.6 °F 3.2 °F 46% 30.27 in 10.0 mi WSW 6.9 mph - N/A   Clear
8:35 PM 21.2 °F 12.6 °F 3.2 °F 46% 30.26 in 10.0 mi WSW 6.9 mph - N/A   Clear
8:55 PM 21.2 °F 12.6 °F 3.2 °F 46% 30.25 in 10.0 mi WSW 6.9 mph - N/A   Clear
9:15 PM 21.2 °F 12.6 °F 3.2 °F 46% 30.24 in 10.0 mi WSW 6.9 mph - N/A   Clear
9:35 PM 19.4 °F 10.4 °F 3.2 °F 49% 30.23 in 10.0 mi WSW 6.9 mph - N/A   Clear
9:55 PM 19.4 °F 11.5 °F 3.2 °F 49% 30.23 in 10.0 mi WSW 5.8 mph - N/A   Clear
10:15 PM 19.4 °F 10.4 °F 5.0 °F 54% 30.23 in 10.0 mi WSW 6.9 mph - N/A   Clear
10:35 PM 19.4 °F 9.5 °F 5.0 °F 54% 30.22 in 10.0 mi WSW 8.1 mph - N/A   Clear
10:55 PM 19.4 °F 11.5 °F 5.0 °F 54% 30.21 in 10.0 mi WSW 5.8 mph - N/A   Clear
11:15 PM 19.4 °F 12.8 °F 5.0 °F 54% 30.20 in 10.0 mi WSW 4.6 mph - N/A   Partly Cloudy
11:35 PM 19.4 °F 12.8 °F 5.0 °F 54% 30.20 in 10.0 mi WSW 4.6 mph - N/A   Scattered Clouds
11:55 PM 19.4 °F 11.5 °F 3.2 °F 49% 30.19 in 10.0 mi SW 5.8 mph - N/A   Partly Cloudy